Location: Strathcona Wilderness Centre
(53.5370°N, 113.0082°W)
Time: 17:41:11
(UTC-07:00)

ISS - Visible Passes

Search period start: 21 January 2018 00:00
Search period end: 31 January 2018 00:00
Orbit: 402 x 407 km, 51.6° (Epoch: 22 January)

Date Brightness Start Highest point End Pass type
(mag) Time Alt. Az. Time Alt. Az. Time Alt. Az.
27 Jan -1.9 19:20:45 10° SSW 19:22:25 20° S 19:22:25 20° S visible
28 Jan -1.8 18:29:09 10° S 18:31:14 16° SE 18:32:20 14° ESE visible
28 Jan -1.2 20:04:01 10° WSW 20:04:59 18° SW 20:04:59 18° SW visible
29 Jan -2.9 19:11:52 10° SW 19:14:50 35° SSE 19:14:50 35° SSE visible
30 Jan -2.3 18:19:51 10° SSW 18:22:37 26° SSE 18:24:38 15° ESE visible
30 Jan -1.9 19:55:31 10° WSW 19:57:17 28° WSW 19:57:17 28° WSW visible
